Falfurrias, TX

10:49 AM CST on December 07, 2019 (GMT -0600)
Falfurrias

Weather History for KBKS - October, 2019

Change the Weather History Date:

Wednesday, October 30, 2019

  Actual Average (WUND) Record (WUND)
Temperature  
Mean Temperature 71 °F -  
Max Temperature 89 °F - - (-1)
Min Temperature 53 °F - - (-1)
Cooling Degree Days 6    
Growing Degree Days 21 (Base 50)    
Moisture  
Dew Point 66 °F    
Average Humidity 81    
Maximum Humidity 90    
Minimum Humidity 57    
Precipitation  
Precipitation 0.00 in - - ()
Sea Level Pressure  
Sea Level Pressure 29.92 in    
Wind  
Wind Speed 8 mph ()    
Max Wind Speed 21 mph    
Max Gust Speed 29 mph    
Visibility 6.1 miles    
Events      
Averages and records for this station are not official NWS values.
T = Trace of Precipitation, MM = Missing Value Source: Averaged Metar Reports

Daily Weather History Graph

Daily Weather History Graph

Search for Another Location

Airport or City:

Astronomy

Oct. 30, 2019 Rise Set
Actual Time 7:41 AM CDT 6:50 PM CDT
Civil Twilight 7:17 AM CDT 7:14 PM CDT
Nautical Twilight 6:49 AM CDT 7:42 PM CDT
Astronomical Twilight 6:22 AM CDT 8:09 PM CDT
Moon 10:15 AM CDT (10/30) 9:11 PM CDT (10/30)
Length of Visible Light 11h 57m
Length of Day
11h 09m
Waxing Crescent, 9% of the Moon is Illuminated
Oct 30
Waxing Crescent
Nov 4
First Quarter
Nov 12
Full
Nov 19
Last Quarter
Nov 26
New

Hourly Weather History & Observations

Time (CDT) Temp. Heat Index Dew Point Humidity Pressure Visibility Wind Dir Wind Speed Gust Speed Precip Events Conditions
12:15 AM 79.7 °F - 76.1 °F 89% 29.85 in 10.0 mi SE 6.9 mph - N/A   Scattered Clouds
12:35 AM 79.7 °F - 76.1 °F 89% 29.84 in 10.0 mi SE 6.9 mph - N/A   Scattered Clouds
12:55 AM 79.7 °F - 76.1 °F 89% 29.84 in 7.0 mi ESE 8.1 mph - N/A   Scattered Clouds
1:15 AM 79.7 °F - 76.1 °F 89% 29.84 in 7.0 mi ESE 5.8 mph - N/A   Mostly Cloudy
1:35 AM 79.7 °F - 76.1 °F 89% 29.83 in 7.0 mi SE 8.1 mph - N/A   Mostly Cloudy
1:55 AM 79.7 °F - 76.1 °F 89% 29.83 in 7.0 mi SE 8.1 mph - N/A   Mostly Cloudy
2:15 AM 79.7 °F - 76.1 °F 89% 29.83 in 7.0 mi SE 6.9 mph - N/A   Scattered Clouds
2:35 AM 79.3 °F - 76.1 °F 90% 29.83 in 5.0 mi SE 5.8 mph - N/A   Scattered Clouds
3:15 AM 79.3 °F - 75.7 °F 89% 29.82 in 4.0 mi SE 8.1 mph - N/A   Clear
3:35 AM 79.3 °F - 75.7 °F 89% 29.83 in 3.0 mi SE 5.8 mph - N/A   Mostly Cloudy
3:55 AM 79.7 °F - 76.1 °F 89% 29.83 in 4.0 mi SE 6.9 mph - N/A   Overcast
4:15 AM 79.7 °F - 75.7 °F 88% 29.83 in 4.0 mi SE 4.6 mph - N/A   Overcast
4:35 AM 79.7 °F - 75.7 °F 88% 29.82 in 4.0 mi SE 5.8 mph - N/A   Overcast
4:55 AM 79.2 °F - 75.6 °F 89% 29.82 in 4.0 mi SE 3.5 mph - N/A   Mostly Cloudy
5:15 AM 79.2 °F - 75.7 °F 89% 29.82 in 4.0 mi SE 4.6 mph - N/A   Overcast
5:35 AM 78.8 °F - 75.6 °F 90% 29.83 in 3.0 mi ESE 3.5 mph - N/A   Overcast
5:55 AM 78.6 °F - 75.4 °F 90% 29.83 in 3.0 mi SE 3.5 mph - N/A   Overcast
6:15 AM 78.8 °F - 75.6 °F 90% 29.83 in 3.0 mi SE 3.5 mph - N/A   Overcast
6:35 AM 78.4 °F - 75.4 °F 90% 29.83 in 3.0 mi ESE 4.6 mph - N/A   Mostly Cloudy
6:55 AM 78.8 °F - 75.6 °F 90% 29.83 in 3.0 mi ESE 5.8 mph - N/A   Scattered Clouds
7:15 AM 78.8 °F - 75.6 °F 90% 29.84 in 3.0 mi ESE 4.6 mph - N/A   Clear
7:35 AM 78.4 °F - 75.4 °F 90% 29.84 in 3.0 mi SE 5.8 mph - N/A   Clear
7:55 AM 78.4 °F - 75.4 °F 90% 29.84 in 3.0 mi ESE 4.6 mph - N/A   Clear
8:15 AM 78.8 °F - 75.6 °F 90% 29.85 in 4.0 mi SE 5.8 mph - N/A   Clear
8:35 AM 79.2 °F - 75.6 °F 89% 29.85 in 3.0 mi SE 5.8 mph - N/A   Clear
8:55 AM 79.9 °F - 75.9 °F 88% 29.86 in 2.5 mi SE 8.1 mph - N/A   Clear
9:15 AM 80.6 °F 86.6 °F 75.9 °F 86% 29.87 in 3.0 mi SE 5.8 mph - N/A   Scattered Clouds
9:35 AM 81.0 °F 87.1 °F 75.7 °F 84% 29.87 in 3.0 mi SSE 9.2 mph - N/A   Scattered Clouds
9:55 AM 81.9 °F 88.9 °F 75.9 °F 82% 29.88 in 2.0 mi SE 8.1 mph - N/A   Overcast
10:15 AM 82.4 °F 89.8 °F 75.6 °F 80% 29.88 in 2.5 mi SSE 10.4 mph - N/A   Overcast
10:35 AM 83.3 °F 91.1 °F 75.4 °F 77% 29.88 in 1.5 mi SE 9.2 mph - N/A   Overcast
10:55 AM 84.4 °F 92.4 °F 74.8 °F 73% 29.88 in 1.8 mi SSE 11.5 mph - N/A   Overcast
11:15 AM 85.1 °F 92.9 °F 74.1 °F 70% 29.88 in 1.8 mi South 9.2 mph - N/A   Overcast
11:35 AM 85.8 °F 93.4 °F 73.8 °F 67% 29.88 in 4.0 mi SSW 5.8 mph - N/A   Overcast
11:55 AM 86.9 °F 94.1 °F 72.9 °F 63% 29.87 in 3.0 mi South 8.1 mph - N/A   Mostly Cloudy
12:15 PM 87.8 °F 95.2 °F 72.7 °F 61% 29.87 in 2.5 mi SSE 6.9 mph - N/A   Mostly Cloudy
12:35 PM 89.6 °F 97.2 °F 72.7 °F 57% 29.86 in 4.0 mi SE 9.2 mph - N/A   Overcast
12:55 PM 87.6 °F 93.9 °F 71.8 °F 59% 29.85 in 2.5 mi South 6.9 mph - N/A   Overcast
1:15 PM 88.5 °F 95.8 °F 72.5 °F 59% 29.85 in 2.0 mi South 6.9 mph - N/A   Overcast
1:35 PM 88.5 °F 95.8 °F 72.3 °F 59% 29.84 in 5.0 mi ESE 5.8 mph - N/A   Overcast
1:55 PM 79.5 °F - 67.3 °F 66% 29.84 in 7.0 mi NNE 12.7 mph 19.6 mph N/A   Overcast
2:15 PM 76.8 °F - 66.6 °F 70% 29.84 in 7.0 mi NNE 13.8 mph 17.3 mph N/A   Overcast
2:35 PM 73.9 °F - 64.9 °F 73% 29.85 in 7.0 mi NNE 16.1 mph 20.7 mph N/A   Overcast
2:55 PM 72.7 °F - 64.8 °F 76% 29.85 in 7.0 mi North 10.4 mph 21.9 mph N/A   Mostly Cloudy
3:15 PM 71.6 °F - 62.1 °F 72% 29.85 in 10.0 mi North 19.6 mph 25.3 mph N/A   Overcast
3:35 PM 68.7 °F - 60.3 °F 74% 29.88 in 7.0 mi NNW 17.3 mph 26.5 mph N/A   Overcast
3:55 PM 64.2 °F - 57.7 °F 79% 29.89 in 7.0 mi North 17.3 mph 25.3 mph N/A   Overcast
4:15 PM 62.1 °F - 56.5 °F 82% 29.92 in 10.0 mi North 15.0 mph 21.9 mph N/A   Overcast
4:35 PM 60.3 °F - 55.4 °F 84% 29.93 in 10.0 mi NNW 17.3 mph 25.3 mph N/A   Overcast
4:55 PM 59.0 °F - 54.7 °F 86% 29.94 in 10.0 mi North 16.1 mph 20.7 mph N/A   Overcast
5:15 PM 58.5 °F - 54.0 °F 85% 29.95 in 10.0 mi North 17.3 mph 23.0 mph N/A   Overcast
5:35 PM 57.4 °F - 52.7 °F 84% 29.96 in 10.0 mi North 13.8 mph 25.3 mph N/A   Overcast
5:55 PM 56.8 °F - 52.2 °F 84% 29.98 in 10.0 mi NNW 20.7 mph - N/A   Overcast
6:15 PM 56.7 °F - 51.3 °F 82% 30.00 in 10.0 mi North 15.0 mph 26.5 mph N/A   Overcast
6:35 PM 56.3 °F - 50.9 °F 82% 30.01 in 10.0 mi North 16.1 mph 23.0 mph N/A   Overcast
6:55 PM 56.1 °F - 50.5 °F 82% 30.03 in 10.0 mi North 16.1 mph 20.7 mph N/A   Overcast
7:35 PM 54.7 °F - 51.1 °F 88% 30.06 in 4.0 mi NNW 17.3 mph 24.2 mph N/A   Overcast
7:55 PM 54.7 °F - 51.3 °F 88% 30.07 in 7.0 mi North 15.0 mph 23.0 mph N/A   Overcast
8:15 PM 54.5 °F - 50.9 °F 88% 30.09 in 10.0 mi North 11.5 mph 20.7 mph N/A   Overcast
8:35 PM 54.0 °F - 50.2 °F 87% 30.10 in 10.0 mi NNW 18.4 mph 28.8 mph N/A   Overcast
8:55 PM 53.8 °F - 49.1 °F 84% 30.12 in 10.0 mi North 15.0 mph 28.8 mph N/A   Overcast
9:15 PM 54.1 °F - 48.4 °F 81% 30.14 in 10.0 mi NNW 15.0 mph 23.0 mph N/A   Overcast
9:35 PM 54.0 °F - 48.4 °F 81% 30.16 in 10.0 mi NNW 12.7 mph 20.7 mph N/A   Overcast
10:15 PM 54.5 °F - 46.6 °F 75% 30.19 in 10.0 mi NNW 12.7 mph 20.7 mph N/A   Overcast
10:35 PM 54.7 °F - 46.4 °F 74% 30.20 in 10.0 mi NNW 11.5 mph 23.0 mph N/A   Overcast
10:55 PM 55.0 °F - 46.0 °F 72% 30.21 in 10.0 mi NNW 13.8 mph 19.6 mph N/A   Overcast
11:15 PM 55.4 °F - 44.4 °F 67% 30.21 in 10.0 mi North 13.8 mph 21.9 mph N/A   Overcast
11:35 PM 55.4 °F - 43.7 °F 65% 30.22 in 10.0 mi NNW 16.1 mph 24.2 mph N/A   Overcast
11:55 PM 55.4 °F - 43.0 °F 63% 30.23 in 10.0 mi North 13.8 mph 23.0 mph N/A   Overcast